Change the Weather History Date:

Wednesday, April 10, 2013

  Actual Average Record
Temperature  
Mean Temperature 74 °F 56 °F  
Max Temperature 85 °F 67 °F 88 °F (2001)
Min Temperature 63 °F 45 °F 26 °F (1985)
Degree Days  
Heating Degree Days 0 10  
Month to date heating degree days 110 116  
Since 1 July heating degree days 4121 3969  
Cooling Degree Days 9 1  
Month to date cooling degree days 18 10  
Year to date cooling degree days 18 17  
Growing Degree Days 24 (Base 50)    
Moisture  
Dew Point 51 °F    
Average Humidity 48    
Maximum Humidity 65    
Minimum Humidity 31    
Precipitation  
Precipitation 0.00 in 0.13 in 0.55 in (2003)
Month to date precipitation 0.19 1.25  
Year to date precipitation 12.46 12.73  
Snow  
Snow 0.00 in 0.10 in - ()
Month to date snowfall 0.0 0.6  
Since 1 July snowfall 20.0 23.1  
Snow Depth 0.00 in    
Sea Level Pressure  
Sea Level Pressure 29.96 in    
Wind  
Wind Speed 5 mph (SW)    
Max Wind Speed 15 mph    
Max Gust Speed 26 mph    
Visibility 10 miles    
Events      
T = Trace of Precipitation, MM = Missing Value Source: NWS Daily Summary

Daily Weather History Graph

Daily Weather History Graph

Search for Another Location

Airport or City:

Trip Planner

Search our weather history database for the weather conditions in past years. The results will help you decide how hot, cold, wet, or windy it might be!

Date:

Astronomy

Apr. 10, 2013 Rise Set
Actual Time 7:05 AM EDT 8:04 PM EDT
Civil Twilight 6:38 AM EDT 8:31 PM EDT
Nautical Twilight 6:06 AM EDT 9:03 PM EDT
Astronomical Twilight 5:33 AM EDT 9:36 PM EDT
Moon 7:01 AM EDT (4/10) 8:37 PM EDT (4/10)
Length of Visible Light 13h 52m
Length of Day
12h 59m
New Moon, 0% of the Moon is Illuminated
Apr 10
New Moon
Apr 18
First Quarter
Apr 25
Full
May 2
Last Quarter
May 9
New

Hourly Weather History & Observations

Time (EDT) Temp. Heat Index Dew Point Humidity Pressure Visibility Wind Dir Wind Speed Gust Speed Precip Events Conditions
12:53 AM 69.1 °F - 51.1 °F 53% 30.02 in 10.0 mi Variable 5.8 mph - N/A   Clear
1:53 AM 66.9 °F - 51.1 °F 57% 30.03 in 10.0 mi WSW 3.5 mph - N/A   Clear
2:53 AM 66.9 °F - 51.1 °F 57% 30.01 in 10.0 mi SW 3.5 mph - N/A   Clear
3:53 AM 66.9 °F - 51.1 °F 57% 30.00 in 10.0 mi Calm Calm - N/A   Clear
4:53 AM 64.0 °F - 51.1 °F 63% 29.98 in 10.0 mi SSW 3.5 mph - N/A   Clear
5:53 AM 63.0 °F - 50.0 °F 63% 29.98 in 10.0 mi South 4.6 mph - N/A   Clear
6:53 AM 64.9 °F - 50.0 °F 58% 30.00 in 10.0 mi SSW 3.5 mph - N/A   Clear
7:53 AM 64.0 °F - 51.1 °F 63% 30.02 in 10.0 mi Variable 3.5 mph - N/A   Clear
8:53 AM 69.1 °F - 52.0 °F 54% 30.04 in 10.0 mi Variable 3.5 mph - N/A   Clear
9:53 AM 71.1 °F - 52.0 °F 51% 30.04 in 10.0 mi South 6.9 mph - N/A   Clear
10:53 AM 77.0 °F - 55.0 °F 47% 30.04 in 10.0 mi SW 10.4 mph 21.9 mph N/A   Scattered Clouds
11:53 AM 80.1 °F 80.1 °F 55.0 °F 42% 30.04 in 10.0 mi Variable 5.8 mph 19.6 mph N/A   Partly Cloudy
12:53 PM 80.1 °F 80.1 °F 55.0 °F 42% 30.02 in 10.0 mi WSW 8.1 mph 19.6 mph N/A   Overcast
1:53 PM 82.0 °F 81.6 °F 55.9 °F 41% 30.00 in 10.0 mi Variable 3.5 mph - N/A   Mostly Cloudy
2:53 PM 80.1 °F 80.0 °F 54.0 °F 40% 29.99 in 10.0 mi WSW 8.1 mph 17.3 mph N/A   Partly Cloudy
3:53 PM 82.0 °F 81.2 °F 53.1 °F 37% 29.94 in 10.0 mi Variable 6.9 mph - N/A   Partly Cloudy
4:53 PM 84.0 °F 82.5 °F 53.1 °F 34% 29.90 in 10.0 mi SSW 9.2 mph - N/A   Partly Cloudy
5:53 PM 84.9 °F - 51.1 °F 31% 29.88 in 10.0 mi Variable 5.8 mph - N/A   Partly Cloudy
6:53 PM 82.9 °F - 48.9 °F 31% 29.87 in 10.0 mi WSW 8.1 mph - N/A   Clear
7:53 PM 79.0 °F - 48.0 °F 34% 29.85 in 10.0 mi Variable 3.5 mph - N/A   Clear
8:53 PM 78.1 °F - 46.9 °F 33% 29.85 in 10.0 mi Calm Calm - N/A   Clear
9:53 PM 73.9 °F - 50.0 °F 43% 29.84 in 10.0 mi Calm Calm - N/A   Clear
10:53 PM 73.0 °F - 48.9 °F 42% 29.84 in 10.0 mi Calm Calm - N/A   Clear
11:53 PM 73.0 °F - 48.0 °F 41% 29.84 in 10.0 mi Variable 5.8 mph - N/A   Clear